When you browse on this site, cookies collect data to enhance your experience and personalize the content and advertising you see.
Visit our Privacy Policy to learn more. By continuing to use the site, you agree to this use of cookies and data.
  • In Schweiz
  • Länderverzeichnis
  • Für 7 Tage
  • Wassertemperatur
  • Satellitenkarten
  • Wetterkarte
  • Widgets
  • user-avatar
    Anmelden

    Stündliche Wetter Tomaryne

    Heute, 16 Juli, Dienstag

    Zeit Temperatur Niederschläge Wind Luftdruck Luftfeuchtigkeit
    00:00 +19°C° 0.1 mm 4 m/S 751 mmHg 80%
    01:00 +19°C° 0.1 mm 3 m/S 751 mmHg 81%
    02:00 +19°C° 0.1 mm 3 m/S 751 mmHg 81%
    03:00 +19°C° 0.1 mm 3 m/S 751 mmHg 83%
    04:00 +18°C° 0.1 mm 3 m/S 751 mmHg 85%
    05:00 +18°C° 0.1 mm 3 m/S 751 mmHg 86%
    06:00 +19°C° 0 mm 3 m/S 751 mmHg 81%
    07:00 +21°C° 0 mm 3 m/S 751 mmHg 75%
    08:00 +22°C° 0 mm 4 m/S 751 mmHg 69%
    09:00 +25°C° 0 mm 4 m/S 751 mmHg 61%
    10:00 +26°C° 0 mm 4 m/S 751 mmHg 53%
    11:00 +28°C° 0 mm 4 m/S 751 mmHg 46%
    12:00 +28°C° 0.1 mm 4 m/S 751 mmHg 44%
    13:00 +28°C° 0.1 mm 4 m/S 751 mmHg 43%
    14:00 +29°C° 0.1 mm 4 m/S 751 mmHg 42%
    15:00 +28°C° 0 mm 4 m/S 751 mmHg 42%
    16:00 +28°C° 0 mm 4 m/S 751 mmHg 43%
    17:00 +28°C° 0 mm 3 m/S 751 mmHg 44%
    18:00 +26°C° 0 mm 3 m/S 751 mmHg 47%
    19:00 +25°C° 0 mm 3 m/S 751 mmHg 51%
    20:00 +24°C° 0 mm 3 m/S 751 mmHg 55%
    21:00 +22°C° 0 mm 3 m/S 752 mmHg 59%
    22:00 +21°C° 0 mm 3 m/S 752 mmHg 63%
    23:00 +20°C° 0 mm 3 m/S 752 mmHg 67%

    Morgen, 17 Juli, Mittwoch

    Zeit Temperatur Niederschläge Wind Luftdruck Luftfeuchtigkeit
    00:00 +20°C° 0 mm 2 m/S 752 mmHg 69%
    01:00 +19°C° 0 mm 2 m/S 752 mmHg 72%
    02:00 +19°C° 0 mm 2 m/S 752 mmHg 74%
    03:00 +18°C° 0 mm 2 m/S 752 mmHg 75%
    04:00 +18°C° 0 mm 2 m/S 752 mmHg 77%
    05:00 +18°C° 0 mm 2 m/S 751 mmHg 78%
    06:00 +20°C° 0 mm 2 m/S 752 mmHg 70%
    07:00 +23°C° 0 mm 2 m/S 752 mmHg 62%
    08:00 +24°C° 0 mm 3 m/S 752 mmHg 53%
    09:00 +26°C° 0 mm 3 m/S 752 mmHg 48%
    10:00 +27°C° 0 mm 3 m/S 752 mmHg 42%
    11:00 +28°C° 0 mm 3 m/S 752 mmHg 36%
    12:00 +29°C° 0 mm 3 m/S 752 mmHg 34%
    13:00 +30°C° 0 mm 3 m/S 752 mmHg 31%
    14:00 +30°C° 0 mm 3 m/S 751 mmHg 28%
    15:00 +30°C° 0 mm 4 m/S 751 mmHg 30%
    16:00 +30°C° 0 mm 4 m/S 751 mmHg 31%
    17:00 +29°C° 0 mm 5 m/S 751 mmHg 32%
    18:00 +27°C° 0 mm 4 m/S 751 mmHg 40%
    19:00 +25°C° 0 mm 4 m/S 752 mmHg 47%
    20:00 +22°C° 0 mm 4 m/S 752 mmHg 54%
    21:00 +22°C° 0 mm 3 m/S 752 mmHg 56%
    22:00 +21°C° 0 mm 2 m/S 752 mmHg 58%
    23:00 +20°C° 0 mm 2 m/S 752 mmHg 60%

    übermorgen, 18 Juli, Donnerstag

    Zeit Temperatur Niederschläge Wind Luftdruck Luftfeuchtigkeit
    00:00 +20°C° 0 mm 2 m/S 752 mmHg 62%
    01:00 +19°C° 0 mm 2 m/S 752 mmHg 64%
    02:00 +18°C° 0 mm 2 m/S 752 mmHg 67%
    03:00 +18°C° 0 mm 2 m/S 752 mmHg 68%
    04:00 +19°C° 0 mm 1 m/S 753 mmHg 70%
    05:00 +19°C° 0 mm 1 m/S 753 mmHg 71%
    06:00 +20°C° 0 mm 2 m/S 753 mmHg 65%
    07:00 +23°C° 0 mm 2 m/S 753 mmHg 58%
    08:00 +25°C° 0 mm 3 m/S 753 mmHg 51%
    09:00 +25°C° 0 mm 3 m/S 753 mmHg 48%
    10:00 +26°C° 0 mm 3 m/S 753 mmHg 44%
    11:00 +26°C° 0 mm 4 m/S 754 mmHg 40%
    12:00 +27°C° 0 mm 4 m/S 754 mmHg 37%
    13:00 +28°C° 0 mm 3 m/S 754 mmHg 35%
    14:00 +29°C° 0 mm 3 m/S 753 mmHg 32%
    15:00 +29°C° 0 mm 3 m/S 754 mmHg 32%
    16:00 +29°C° 0 mm 3 m/S 754 mmHg 32%
    17:00 +29°C° 0 mm 3 m/S 754 mmHg 31%
    18:00 +27°C° 0 mm 3 m/S 754 mmHg 36%
    19:00 +26°C° 0 mm 3 m/S 755 mmHg 42%
    20:00 +24°C° 0 mm 3 m/S 755 mmHg 47%
    21:00 +22°C° 0 mm 3 m/S 755 mmHg 49%
    22:00 +21°C° 0 mm 2 m/S 755 mmHg 52%
    23:00 +20°C° 0 mm 2 m/S 756 mmHg 54%

    19 Juli, Freitag

    Zeit Temperatur Niederschläge Wind Luftdruck Luftfeuchtigkeit
    00:00 +19°C° 0 mm 2 m/S 756 mmHg 56%
    01:00 +20°C° 0 mm 1 m/S 756 mmHg 58%
    02:00 +19°C° 0 mm 1 m/S 756 mmHg 60%
    03:00 +19°C° 0 mm 1 m/S 756 mmHg 60%
    04:00 +19°C° 0 mm 1 m/S 756 mmHg 61%
    05:00 +19°C° 0 mm 1 m/S 757 mmHg 61%
    06:00 +20°C° 0 mm 2 m/S 757 mmHg 55%
    07:00 +23°C° 0 mm 2 m/S 757 mmHg 49%
    08:00 +25°C° 0 mm 2 m/S 757 mmHg 44%
    09:00 +27°C° 0 mm 3 m/S 757 mmHg 40%
    10:00 +28°C° 0 mm 3 m/S 757 mmHg 37%
    11:00 +29°C° 0 mm 4 m/S 757 mmHg 34%
    12:00 +30°C° 0 mm 4 m/S 757 mmHg 34%
    13:00 +30°C° 0 mm 4 m/S 757 mmHg 34%
    14:00 +30°C° 0 mm 4 m/S 757 mmHg 34%
    15:00 +30°C° 0 mm 4 m/S 757 mmHg 34%
    16:00 +30°C° 0 mm 3 m/S 757 mmHg 33%
    17:00 +30°C° 0 mm 3 m/S 757 mmHg 33%
    18:00 +29°C° 0 mm 3 m/S 757 mmHg 38%
    19:00 +27°C° 0 mm 2 m/S 758 mmHg 44%
    20:00 +25°C° 0 mm 2 m/S 758 mmHg 49%
    21:00 +24°C° 0 mm 2 m/S 758 mmHg 54%
    22:00 +23°C° 0 mm 2 m/S 759 mmHg 58%
    23:00 +21°C° 0 mm 2 m/S 759 mmHg 63%

    20 Juli, Samstag

    Zeit Temperatur Niederschläge Wind Luftdruck Luftfeuchtigkeit
    00:00 +21°C° 0 mm 2 m/S 759 mmHg 64%
    01:00 +20°C° 0 mm 2 m/S 759 mmHg 66%
    02:00 +20°C° 0 mm 2 m/S 759 mmHg 67%
    03:00 +21°C° 0 mm 1 m/S 759 mmHg 66%
    04:00 +21°C° 0 mm 1 m/S 759 mmHg 66%
    05:00 +21°C° 0 mm 1 m/S 759 mmHg 65%
    06:00 +23°C° 0 mm 1 m/S 759 mmHg 57%
    07:00 +26°C° 0 mm 2 m/S 759 mmHg 49%
    08:00 +28°C° 0 mm 2 m/S 760 mmHg 41%
    09:00 +29°C° 0 mm 2 m/S 760 mmHg 37%
    10:00 +30°C° 0 mm 2 m/S 760 mmHg 34%
    11:00 +31°C° 0 mm 2 m/S 760 mmHg 30%
    12:00 +32°C° 0 mm 2 m/S 760 mmHg 29%
    13:00 +33°C° 0 mm 3 m/S 759 mmHg 28%
    14:00 +34°C° 0 mm 3 m/S 759 mmHg 27%
    15:00 +34°C° 0 mm 3 m/S 759 mmHg 27%
    16:00 +33°C° 0 mm 3 m/S 759 mmHg 27%
    17:00 +33°C° 0 mm 3 m/S 759 mmHg 27%
    18:00 +30°C° 0 mm 3 m/S 759 mmHg 31%
    19:00 +29°C° 0 mm 3 m/S 759 mmHg 34%
    20:00 +27°C° 0 mm 3 m/S 759 mmHg 38%
    21:00 +26°C° 0 mm 2 m/S 759 mmHg 42%
    22:00 +25°C° 0 mm 2 m/S 759 mmHg 47%
    23:00 +24°C° 0 mm 1 m/S 760 mmHg 51%

    21 Juli, Sonntag

    Zeit Temperatur Niederschläge Wind Luftdruck Luftfeuchtigkeit
    00:00 +23°C° 0 mm 1 m/S 760 mmHg 52%
    01:00 +23°C° 0 mm 1 m/S 759 mmHg 52%
    02:00 +23°C° 0 mm 1 m/S 759 mmHg 53%
    03:00 +23°C° 0 mm 1 m/S 759 mmHg 54%
    04:00 +23°C° 0 mm 2 m/S 759 mmHg 54%
    05:00 +23°C° 0 mm 2 m/S 759 mmHg 54%
    06:00 +25°C° 0 mm 2 m/S 759 mmHg 49%
    07:00 +27°C° 0 mm 2 m/S 760 mmHg 43%
    08:00 +29°C° 0 mm 2 m/S 760 mmHg 38%
    09:00 +30°C° 0 mm 3 m/S 760 mmHg 34%
    10:00 +33°C° 0 mm 3 m/S 760 mmHg 30%
    11:00 +34°C° 0 mm 3 m/S 760 mmHg 26%
    12:00 +34°C° 0 mm 3 m/S 760 mmHg 25%
    13:00 +35°C° 0 mm 3 m/S 759 mmHg 24%
    14:00 +35°C° 0 mm 3 m/S 759 mmHg 23%
    15:00 +35°C° 0 mm 4 m/S 759 mmHg 24%
    16:00 +35°C° 0 mm 4 m/S 759 mmHg 24%
    17:00 +35°C° 0 mm 4 m/S 759 mmHg 25%
    18:00 +33°C° 0 mm 4 m/S 759 mmHg 28%
    19:00 +30°C° 0 mm 3 m/S 759 mmHg 32%
    20:00 +28°C° 0 mm 3 m/S 759 mmHg 36%
    21:00 +27°C° 0 mm 3 m/S 759 mmHg 40%
    22:00 +26°C° 0 mm 2 m/S 759 mmHg 44%
    23:00 +25°C° 0 mm 2 m/S 759 mmHg 49%
    Mehr zeigen